User: anonymous   Login
Location: Dąbrówka
(52.2799°N, 15.8070°E)
Time: 14:37:30
(UTC+02:00)
Language:

NOAA 18 - Orbit

View from above orbital plane
View from above orbital plane
View from above satellite
View from above satellite

Ground track
Ground track

The orbit data is extracted from the following two-line orbital elements,

1 28654U 05018A   19175.79916517 +.00000047 +00000-0 +50411-4 0  9993
2 28654 099.0951 222.8605 0014803 156.8857 203.2982 14.12433156726282
Epoch (UTC): 24 June 2019 19:10:47
Eccentricity: 0.0014803
inclination: 99.0951°
perigee height: 840 km
apogee height: 862 km
right ascension of ascending node: 222.8605°
argument of perigee: 156.8857°
revolutions per day: 14.12433156
mean anomaly at epoch: 203.2982°
orbit number at epoch: 72628

The dashed part of the orbit path shows where the satellite is in the earth's shadow,  

DLR